Theta_e
330 331 329 331 332 333 335 338 338 340 342 342 341 339 339 336 334 334 327 326 321 320
325 329 332 330 330 329 332 336 338 341 341 339 334 335 337 335 325 322 320 317 316 315
327 332 336 330 329 329 331 332 337 338 338 336 337 335 335 330 321 318 316 316 316 314
327 328 331 330 329 328 328 331 337 338 335 335 335 332 323 321 318 314 312 313 310 310
322 320 321 324 325 328 326 331 335 335 334 330 332 325 320 317 316 312 310 308 307 307
320 319 317 317 323 326 327 329 331 332 328 326 325 322 319 318 316 314 310 308 307 306
317 316 316 320 324 328 329 328 329 330 328 328 328 325 320 317 314 311 309 308 307 304
319 320 320 322 324 324 327 327 327 326 326 323 321 319 317 313 310 307 306 304 303 304
316 317 319 320 322 321 321 322 321 320 320 318 316 307 310 309 307 304 303 304 305 305
317 321 322 323 319 318 318 318 316 314 314 311 310 304 304 306 305 304 303 302 301 301
320 320 322 320 317 316 316 315 315 312 308 306 305 301 300 302 302 301 300 300 300 299
316 318 318 316 314 311 310 309 309 308 307 303 302 301 300 300 299 297 297 299 299 300
317 317 316 315 313 311 309 306 306 303 303 302 298 298 298 299 297 295 296 297 298 300
317 316 315 313 311 308 306 304 303 301 299 299 298 297 296 297 297 296 296 296 297 297
Wind_Speed
6 8 7 7 5 5 5 6 9 11 10 11 6 3 3 2 2 4 5 6 3 3
5 2 6 3 5 4 4 5 8 12 13 12 10 9 8 3 5 6 7 7 4 4
6 8 6 5 6 6 6 5 5 10 14 14 15 13 10 9 11 12 9 7 5 5
4 5 7 6 7 6 4 6 9 10 11 12 9 11 13 13 16 18 15 9 7 7
6 2 2 4 3 5 4 5 9 10 9 9 12 14 18 18 16 17 17 13 10 6
3 5 6 3 4 2 5 6 6 9 12 13 19 19 15 13 16 17 16 16 13 9
6 5 1 3 3 5 5 7 7 9 13 15 19 17 18 18 15 14 13 15 14 10
8 4 4 7 4 5 7 7 8 9 8 10 12 12 17 17 16 16 14 11 12 12
7 6 5 1 7 5 7 8 12 10 13 13 7 19 24 21 16 17 16 14 12 14
5 6 4 7 7 6 7 9 9 10 10 11 14 19 23 25 15 16 15 17 14 13
4 3 7 10 9 8 6 8 8 10 11 13 11 21 23 24 18 16 15 15 15 17
5 7 8 11 13 12 12 9 9 11 13 15 12 14 26 23 17 16 16 14 16 17
8 8 9 7 8 9 15 10 10 13 12 18 15 10 18 19 12 16 14 14 14 22
7 7 9 7 10 13 13 15 13 14 11 13 13 10 11 15 13 13 13 12 12 10
Wind_Direction
215 253 195 179 179 182 203 202 203 204 179 184 206 77 53 148 151 173 135 162 142 137
190 214 288 135 140 204 211 213 200 190 177 161 169 208 167 167 93 85 67 66 83 113
193 172 193 197 186 205 228 221 208 197 178 182 184 186 165 155 121 105 80 65 59 58
263 202 144 194 185 206 207 208 196 194 174 170 168 142 126 128 129 117 112 96 74 50
203 115 157 160 154 168 204 224 214 178 156 144 139 137 136 134 130 122 118 125 108 106
285 72 244 195 115 149 131 231 192 154 152 137 141 131 126 141 136 143 136 133 139 141
208 190 248 127 99 127 190 176 157 165 152 146 143 144 143 151 142 134 148 142 141 130
278 229 232 126 101 127 163 173 132 142 139 143 135 137 137 138 130 135 123 125 118 110
277 269 250 239 139 140 128 129 129 136 138 138 138 136 136 135 132 128 128 117 100 106
273 245 181 126 125 145 132 124 131 125 128 124 131 135 132 130 130 123 127 119 119 109
215 189 128 131 125 97 90 106 120 115 110 113 122 128 118 115 115 114 111 112 117 115
189 168 151 148 142 125 99 93 97 102 112 115 107 124 121 116 114 110 110 113 112 116
206 173 149 159 139 118 113 109 101 97 100 113 113 110 119 118 120 119 118 111 116 122
193 155 132 124 116 112 116 113 102 99 98 108 113 89 73 109 123 126 126 124 130 128